San Jose, Costa Rica

2:47 PM CST on September 29, 2016 (GMT -0600)
Juan Santamaria International

Weather History for MROC - September, 2013

Change the Weather History Date:

Thursday, September 19, 2013

  Actual Average Record
Temperature  
Mean Temperature 72 °F -  
Max Temperature 79 °F 79 °F 87 °F (2016)
Min Temperature 66 °F 63 °F 62 °F (2004)
Cooling Degree Days 8    
Growing Degree Days 22 (Base 50)    
Moisture  
Dew Point 66 °F    
Average Humidity 84    
Maximum Humidity 100    
Minimum Humidity 56    
Precipitation  
Precipitation 0.00 in - - ()
Sea Level Pressure  
Sea Level Pressure 29.98 in    
Wind  
Wind Speed 6 mph ()    
Max Wind Speed 13 mph    
Max Gust Speed -    
Visibility 7.9 miles    
Events Rain    
Averages and records for this station are not official NWS values.
T = Trace of Precipitation, MM = Missing Value Source: Averaged Metar Reports

Daily Weather History Graph

Daily Weather History Graph

Search for Another Location

Airport or City:

Trip Planner

Search our weather history database for the weather conditions in past years. The results will help you decide how hot, cold, wet, or windy it might be!

Date:

Astronomy

Sep. 19, 2013 Rise Set
Actual Time 5:26 AM CST 5:34 PM CST
Civil Twilight 5:05 AM CST 5:55 PM CST
Nautical Twilight 4:40 AM CST 6:19 PM CST
Astronomical Twilight 4:16 AM CST 6:44 PM CST
Moon 5:47 PM CST (9/19) 5:25 AM CST (9/19)
Length of Visible Light 12h 50m
Length of Day
12h 08m
Full, 100% of the Moon is Illuminated
Sep 19
Full
Sep 26
Last Quarter
Oct 4
New
Oct 11
First Quarter
Oct 18
Full

Hourly Weather History & Observations

Time (CST) Temp. Dew Point Humidity Pressure Visibility Wind Dir Wind Speed Gust Speed Precip Events Conditions
12:00 AM 67 °F 65 °F 93% 29.86 in 12 mi ENE 3.5 mph - -   Mostly Cloudy
12:00 AM 68.0 °F 66.2 °F 94% 30.02 in - ENE 3.5 mph - N/A   Clear
1:00 AM 66.2 °F 66.2 °F 100% 29.99 in - East 3.5 mph - N/A   Clear
2:00 AM 68.0 °F 66.2 °F 94% 29.97 in - ENE 4.6 mph - N/A   Clear
3:00 AM 68 °F 65 °F 87% 29.82 in 12 mi NE 4.6 mph - -   Mostly Cloudy
3:00 AM 68.0 °F 64.4 °F 88% 29.94 in - NE 4.6 mph - N/A   Clear
4:00 AM 68.0 °F 64.4 °F 88% 29.95 in - ENE 4.6 mph - N/A   Clear
5:00 AM 68.0 °F 64.4 °F 88% 29.97 in - NE 5.8 mph - N/A   Clear
6:00 AM 67 °F 64 °F 86% 29.86 in 12 mi East 4.6 mph - -   Mostly Cloudy
6:00 AM 68.0 °F 64.4 °F 88% 30.00 in - East 4.6 mph - N/A   Clear
7:00 AM 69.8 °F 64.4 °F 83% 30.01 in - ENE 9.2 mph - N/A   Clear
8:00 AM 71.6 °F 64.4 °F 78% 30.03 in - SSW 9.2 mph - N/A   Clear
9:00 AM 69 °F 65 °F 85% 29.91 in 12 mi WNW 11.5 mph - -   Overcast
9:00 AM 69.8 °F 66.2 °F 88% 30.05 in 6.2 mi WNW 11.5 mph - N/A   Mostly Cloudy
10:00 AM 73.4 °F 66.2 °F 78% 30.06 in 6.2 mi West 10.4 mph - N/A   Mostly Cloudy
11:00 AM 75.2 °F 64.4 °F 69% 30.07 in 6.2 mi WSW 8.1 mph - N/A   Mostly Cloudy
12:00 PM 77 °F 64 °F 56% 29.86 in 12 mi West 9.2 mph - -   Overcast
12:00 PM 77.0 °F 64.4 °F 65% 30.04 in 6.2 mi West 9.2 mph - N/A   Mostly Cloudy
1:00 PM 78.8 °F 66.2 °F 65% 30.01 in 6.2 mi WSW 10.4 mph - N/A   Mostly Cloudy
2:00 PM 77.0 °F 66.2 °F 69% 29.99 in 6.2 mi WSW 12.7 mph - N/A   Mostly Cloudy
3:00 PM 77 °F 68 °F 66% 29.83 in 12 mi WSW 9.2 mph - -   Partly Cloudy
3:00 PM 77.0 °F 69.8 °F 78% 29.98 in 6.2 mi WSW 9.2 mph - N/A   Mostly Cloudy
4:00 PM 77.0 °F 68.0 °F 74% 29.97 in 6.2 mi WSW 8.1 mph - N/A   Mostly Cloudy
5:00 PM 73.4 °F 66.2 °F 78% 29.99 in 6.2 mi WSW 6.9 mph - N/A   Mostly Cloudy
6:00 PM 71 °F 67 °F 84% 29.88 in 12 mi WSW 6.9 mph - -   Overcast
6:00 PM 71.6 °F 68.0 °F 88% 30.02 in 6.2 mi West 6.9 mph - N/A   Mostly Cloudy
7:00 PM 69.8 °F 68.0 °F 94% 30.05 in 6.2 mi WSW 4.6 mph - N/A   Mostly Cloudy
8:00 PM 69.8 °F 68.0 °F 94% 30.07 in 6.2 mi West 3.5 mph - N/A   Mostly Cloudy
9:00 PM 70 °F 68 °F 93% 29.91 in 5 mi West 4.6 mph - - Rain Light Drizzle
9:00 PM 69.8 °F 68.0 °F 94% 30.08 in 5.0 mi West 4.6 mph - N/A   Light Drizzle
10:00 PM 69.8 °F 68.0 °F 94% 30.09 in 6.2 mi WNW 4.6 mph - N/A   Mostly Cloudy
11:00 PM 69.8 °F 68.0 °F 94% 30.07 in 6.2 mi NW 4.6 mph - N/A   Mostly Cloudy